Weather History for Silver Bay, MN

Change the Weather History Date:

Sunday, October 20, 2013

  Actual Average Record
Temperature  
Mean Temperature 32 °F -  
Max Temperature 39 °F 46 °F 69 °F (2003)
Min Temperature 26 °F 30 °F 23 °F (1999)
Degree Days  
Heating Degree Days 32    
Moisture  
Dew Point 29 °F    
Average Humidity 87    
Maximum Humidity 93    
Minimum Humidity 61    
Precipitation  
Precipitation 0.14 in - - ()
Sea Level Pressure  
Sea Level Pressure 29.70 in    
Wind  
Wind Speed 0 mph (West)    
Max Wind Speed 4 mph    
Max Gust Speed -    
Visibility 9 miles    
Events Rain    
Averages and records for this station are not official NWS values.
T = Trace of Precipitation, MM = Missing Value Source: NWS Daily Summary

Daily Weather History Graph

Daily Weather History Graph

Search for Another Location

Airport:

Trip Planner

Search our weather history database for the weather conditions in past years. The results will help you decide how hot, cold, wet, or windy it might be!

Date:

Astronomy

Oct. 20, 2013 Rise Set
Actual Time 7:31 AM CDT 6:08 PM CDT
Civil Twilight 7:00 AM CDT 6:39 PM CDT
Nautical Twilight 6:24 AM CDT 7:15 PM CDT
Astronomical Twilight 5:49 AM CDT 7:50 PM CDT
Moon 7:09 PM CDT (10/20) 9:16 AM CDT (10/20)
Length of Visible Light 11h 39m
Length of Day
10h 36m
Full, 97% of the Moon is Illuminated
Oct 20
Full
Oct 26
Last Quarter
Nov 3
New
Nov 9
First Quarter
Nov 17
Full

Hourly Weather History & Observations

Time (CDT) Temp. Windchill Dew Point Humidity Pressure Visibility Wind Dir Wind Speed Gust Speed Precip Events Conditions
12:13 AM 28.4 °F - 26.6 °F 93% 29.70 in 10.0 mi Calm Calm - N/A   Clear
12:33 AM 28.4 °F - 26.6 °F 93% 29.71 in 10.0 mi Calm Calm - N/A   Clear
12:53 AM 28.4 °F - 26.6 °F 93% 29.71 in 10.0 mi Calm Calm - N/A   Clear
1:13 AM 30.2 °F - 28.4 °F 93% 29.71 in 10.0 mi Calm Calm - N/A   Clear
1:33 AM 26.6 °F - 24.8 °F 93% 29.71 in 10.0 mi Calm Calm - N/A   Clear
1:53 AM 28.4 °F - 26.6 °F 93% 29.71 in 10.0 mi Calm Calm - N/A   Clear
2:13 AM 26.6 °F - 24.8 °F 93% 29.71 in 7.0 mi Calm Calm - N/A   Clear
2:33 AM 28.4 °F - 26.6 °F 93% 29.71 in 10.0 mi Calm Calm - N/A   Mostly Cloudy
2:53 AM 30.2 °F - 28.4 °F 93% 29.71 in 10.0 mi Calm Calm - N/A   Overcast
3:13 AM 30.2 °F - 28.4 °F 93% 29.71 in 10.0 mi Calm Calm - N/A   Overcast
3:33 AM 30.2 °F - 28.4 °F 93% 29.71 in 10.0 mi Calm Calm - N/A   Overcast
3:53 AM 30.2 °F - 28.4 °F 93% 29.70 in 10.0 mi Calm Calm - N/A   Overcast
4:13 AM 30.2 °F - 28.4 °F 93% 29.71 in 7.0 mi Calm Calm - N/A   Overcast
4:33 AM 30.2 °F - 28.4 °F 93% 29.71 in 10.0 mi Calm Calm - N/A   Overcast
4:53 AM 30.2 °F - 28.4 °F 93% 29.70 in 5.0 mi Calm Calm - N/A   Overcast
5:13 AM 30.2 °F - 28.4 °F 93% 29.71 in 10.0 mi Calm Calm - N/A   Overcast
5:33 AM 30.2 °F - 28.4 °F 93% 29.71 in 10.0 mi Calm Calm - N/A   Overcast
5:53 AM 30.2 °F - 26.6 °F 86% 29.70 in 10.0 mi Calm Calm - N/A   Overcast
6:13 AM 28.4 °F - 26.6 °F 93% 29.70 in 10.0 mi Calm Calm - N/A   Scattered Clouds
6:33 AM 28.4 °F - 26.6 °F 93% 29.70 in 10.0 mi Calm Calm - N/A   Scattered Clouds
6:53 AM 28.4 °F - 26.6 °F 93% 29.70 in 10.0 mi Calm Calm - N/A   Scattered Clouds
7:13 AM 28.4 °F - 26.6 °F 93% 29.70 in 10.0 mi Calm Calm - N/A   Mostly Cloudy
7:33 AM 28.4 °F - 26.6 °F 93% 29.70 in 10.0 mi Calm Calm - N/A   Mostly Cloudy
7:53 AM 28.4 °F - 26.6 °F 93% 29.71 in 10.0 mi Calm Calm - N/A   Scattered Clouds
8:13 AM 28.4 °F - 26.6 °F 93% 29.71 in 10.0 mi Calm Calm - N/A   Clear
8:33 AM 28.4 °F - 26.6 °F 93% 29.71 in 10.0 mi Calm Calm - N/A   Scattered Clouds
8:53 AM 30.2 °F - 26.6 °F 86% 29.72 in 10.0 mi Calm Calm - N/A   Mostly Cloudy
9:13 AM 30.2 °F - 28.4 °F 93% 29.72 in 10.0 mi Calm Calm - N/A   Mostly Cloudy
9:33 AM 32.0 °F - 28.4 °F 87% 29.71 in 10.0 mi Calm Calm - N/A   Scattered Clouds
9:53 AM 33.8 °F - 30.2 °F 87% 29.71 in 10.0 mi Calm Calm - N/A   Scattered Clouds
10:13 AM 33.8 °F - 30.2 °F 87% 29.71 in 10.0 mi Calm Calm - N/A   Clear
10:33 AM 37.4 °F - 30.2 °F 75% 29.71 in 10.0 mi Calm Calm - N/A   Clear
10:53 AM 37.4 °F - 32.0 °F 81% 29.71 in 10.0 mi Calm Calm - N/A   Clear
11:13 AM 37.4 °F - 32.0 °F 81% 29.71 in 10.0 mi Calm Calm - N/A   Clear
11:33 AM 37.4 °F - 32.0 °F 81% 29.71 in 10.0 mi Calm Calm - N/A   Clear
11:53 AM 39.2 °F - 32.0 °F 75% 29.71 in 10.0 mi Calm Calm - N/A   Scattered Clouds
12:13 PM 39.2 °F - 30.2 °F 70% 29.71 in 10.0 mi Calm Calm - N/A   Scattered Clouds
12:33 PM 39.2 °F - 28.4 °F 65% 29.70 in 10.0 mi Calm Calm - N/A   Clear
12:53 PM 39.2 °F - 28.4 °F 65% 29.70 in 10.0 mi Calm Calm - N/A   Clear
1:14 PM 39.2 °F - 26.6 °F 61% 29.69 in 10.0 mi Calm Calm - N/A   Scattered Clouds
1:33 PM 39.2 °F - 30.2 °F 70% 29.69 in 10.0 mi Calm Calm - N/A   Light Drizzle
1:53 PM 37.4 °F 34.9 °F 32.0 °F 81% 29.69 in 7.0 mi WSW 3.5 mph - N/A Rain Light Rain
2:13 PM 37.4 °F - 32.0 °F 81% 29.68 in 10.0 mi Calm Calm - N/A   Scattered Clouds
2:33 PM 37.4 °F - 30.2 °F 75% 29.68 in 10.0 mi Calm Calm - N/A Rain Light Rain
2:53 PM 37.4 °F - 30.2 °F 75% 29.68 in 5.0 mi Calm Calm - N/A   Light Drizzle
3:13 PM 37.4 °F 34.9 °F 33.8 °F 87% 29.68 in 10.0 mi WSW 3.5 mph - N/A   Light Drizzle
3:33 PM 37.4 °F - 33.8 °F 87% 29.68 in 7.0 mi Calm Calm - N/A Rain Light Rain
3:53 PM 35.6 °F - 32.0 °F 87% 29.69 in 7.0 mi Calm Calm - 0.01 in Rain Light Rain
4:13 PM 35.6 °F - 30.2 °F 81% 29.69 in 4.0 mi Calm Calm - 0.03 in Rain Light Rain
4:33 PM 33.8 °F - 30.2 °F 87% 29.69 in 2.5 mi Calm Calm - 0.05 in Rain Light Rain
4:53 PM 33.8 °F - 30.2 °F 87% 29.69 in 4.0 mi Calm Calm - 0.01 in Rain Light Rain
5:13 PM 33.8 °F - 30.2 °F 87% 29.69 in 3.0 mi Calm Calm - 0.02 in Rain Light Rain
5:33 PM 33.8 °F - 30.2 °F 87% 29.70 in 3.0 mi Calm Calm - 0.03 in Rain Light Rain
5:53 PM 33.8 °F - 30.2 °F 87% 29.70 in 5.0 mi Calm Calm - N/A Rain Light Rain
6:13 PM 33.8 °F - 30.2 °F 87% 29.70 in 5.0 mi Calm Calm - 0.01 in Rain Light Rain
6:33 PM 33.8 °F - 30.2 °F 87% 29.70 in 7.0 mi Calm Calm - 0.02 in Rain Light Rain
6:53 PM 33.8 °F - 30.2 °F 87% 29.71 in 7.0 mi Calm Calm - N/A Rain Light Rain
7:13 PM 33.8 °F - 30.2 °F 87% 29.71 in 7.0 mi Calm Calm - 0.01 in Rain Light Rain
7:33 PM 33.8 °F - 30.2 °F 87% 29.71 in 7.0 mi Calm Calm - 0.02 in Rain Light Rain
7:53 PM 33.8 °F - 30.2 °F 87% 29.71 in 7.0 mi Calm Calm - N/A Rain Rain
8:13 PM 33.8 °F - 30.2 °F 87% 29.71 in 7.0 mi Calm Calm - N/A Rain Rain
8:33 PM 33.8 °F - 30.2 °F 87% 29.71 in 7.0 mi Calm Calm - 0.01 in Rain Rain
8:53 PM 33.8 °F - 30.2 °F 87% 29.71 in 7.0 mi Calm Calm - N/A Rain Light Rain
9:13 PM 33.8 °F - 30.2 °F 87% 29.71 in 10.0 mi Calm Calm - N/A   Light Drizzle
9:33 PM 33.8 °F - 30.2 °F 87% 29.71 in 10.0 mi Calm Calm - N/A   Light Drizzle
9:53 PM 33.8 °F - 30.2 °F 87% 29.71 in 10.0 mi Calm Calm - N/A   Light Drizzle
10:13 PM 33.8 °F - 30.2 °F 87% 29.70 in 10.0 mi Calm Calm - N/A   Overcast
10:33 PM 33.8 °F - 30.2 °F 87% 29.70 in 10.0 mi Calm Calm - N/A   Overcast
10:53 PM 32.0 °F - 30.2 °F 93% 29.70 in 10.0 mi Calm Calm - N/A   Overcast
11:13 PM 33.8 °F - 30.2 °F 87% 29.70 in 10.0 mi Calm Calm - N/A   Mostly Cloudy
11:33 PM 33.8 °F - 30.2 °F 87% 29.70 in 10.0 mi Calm Calm - N/A   Overcast
11:53 PM 33.8 °F 30.8 °F 30.2 °F 87% 29.69 in 10.0 mi NW 3.5 mph - N/A   Overcast